DAL1065 KATL-KPBI

Flight info

Callsign DAL1065
Flight time N/A
Altitude 37000
Route SMLTZ3 WALET ZPLEN VUUDU1
Aircraft A321/M-SDE3FGHIRWY/LB1

Departure

Time 2026-05-07 14:49
Airport Hartsfield Jackson Atlanta International Airport (KATL)

Arrival

Time N/A
Airport Palm Beach International Airport (KPBI)
Time Latitude Longitude Altitude Speed Heading
2026-05-07 14:22 33.64164 -84.43967 1007 ft 0 kts 91°
2026-05-07 14:31 33.64164 -84.43970 1006 ft 2 kts 91°
2026-05-07 14:32 33.64164 -84.43991 1006 ft 3 kts 91°
2026-05-07 14:32 33.64165 -84.44008 1006 ft 3 kts 91°
2026-05-07 14:32 33.64165 -84.44034 1006 ft 3 kts 91°
2026-05-07 14:32 33.64165 -84.44056 1006 ft 3 kts 110°
2026-05-07 14:33 33.64169 -84.44067 1006 ft 0 kts 144°
2026-05-07 14:36 33.64160 -84.44061 1006 ft 5 kts 150°
2026-05-07 14:37 33.64075 -84.44048 1006 ft 15 kts 180°
2026-05-07 14:37 33.63923 -84.44050 1006 ft 6 kts 181°
2026-05-07 14:37 33.63896 -84.44051 1006 ft 2 kts 181°
2026-05-07 14:38 33.63889 -84.44051 1006 ft 3 kts 181°
2026-05-07 14:38 33.63844 -84.44052 1006 ft 10 kts 181°
2026-05-07 14:38 33.63744 -84.44054 1006 ft 18 kts 181°
2026-05-07 14:38 33.63671 -84.43979 1007 ft 12 kts 104°
2026-05-07 14:39 33.63663 -84.43890 1006 ft 10 kts 91°
2026-05-07 14:39 33.63661 -84.43789 1006 ft 14 kts 91°
2026-05-07 14:39 33.63665 -84.43652 1006 ft 19 kts 88°
2026-05-07 14:39 33.63666 -84.43485 1006 ft 19 kts 90°
2026-05-07 14:40 33.63666 -84.43334 1006 ft 17 kts 90°
2026-05-07 14:40 33.63666 -84.43205 1006 ft 14 kts 90°
2026-05-07 14:40 33.63666 -84.43105 1006 ft 11 kts 90°
2026-05-07 14:40 33.63665 -84.43001 1006 ft 15 kts 90°
2026-05-07 14:41 33.63664 -84.42859 1006 ft 19 kts 90°
2026-05-07 14:41 33.63658 -84.42688 1007 ft 20 kts 93°
2026-05-07 14:41 33.63656 -84.42531 1007 ft 17 kts 90°
2026-05-07 14:41 33.63657 -84.42431 1007 ft 17 kts 90°
2026-05-07 14:42 33.63657 -84.42301 1007 ft 16 kts 90°
2026-05-07 14:42 33.63657 -84.42135 1007 ft 14 kts 90°
2026-05-07 14:42 33.63657 -84.42028 1007 ft 12 kts 90°
2026-05-07 14:42 33.63656 -84.41967 1006 ft 10 kts 90°
2026-05-07 14:43 33.63656 -84.41891 1006 ft 8 kts 90°
2026-05-07 14:43 33.63656 -84.41831 1006 ft 6 kts 90°
2026-05-07 14:43 33.63655 -84.41783 1006 ft 6 kts 90°
2026-05-07 14:43 33.63655 -84.41746 1006 ft 3 kts 90°
2026-05-07 14:44 33.63655 -84.41720 1006 ft 7 kts 90°
2026-05-07 14:44 33.63654 -84.41605 1006 ft 16 kts 90°
2026-05-07 14:44 33.63653 -84.41476 1006 ft 14 kts 90°
2026-05-07 14:44 33.63654 -84.41367 1006 ft 11 kts 89°
2026-05-07 14:45 33.63654 -84.41289 1006 ft 8 kts 89°
2026-05-07 14:45 33.63655 -84.41232 1006 ft 6 kts 90°
2026-05-07 14:45 33.63655 -84.41162 1006 ft 13 kts 90°
2026-05-07 14:45 33.63655 -84.41050 1006 ft 11 kts 90°
2026-05-07 14:46 33.63655 -84.40965 1006 ft 9 kts 90°
2026-05-07 14:46 33.63641 -84.40922 1006 ft 2 kts 133°
2026-05-07 14:46 33.63635 -84.40917 1006 ft 0 kts 147°
2026-05-07 14:46 33.63613 -84.40907 1006 ft 7 kts 165°
2026-05-07 14:47 33.63562 -84.40906 1006 ft 2 kts 180°
2026-05-07 14:47 33.63542 -84.40906 1007 ft 6 kts 180°
2026-05-07 14:47 33.63485 -84.40925 1007 ft 8 kts 223°
2026-05-07 14:47 33.63472 -84.40976 1007 ft 6 kts 268°
2026-05-07 14:48 33.63471 -84.41023 1006 ft 15 kts 269°
2026-05-07 14:48 33.63472 -84.41522 1006 ft 90 kts 270°
2026-05-07 14:48 33.63472 -84.42598 1007 ft 144 kts 270°
2026-05-07 14:48 33.63470 -84.44051 1302 ft 163 kts 272°
2026-05-07 14:49 33.63454 -84.45453 1922 ft 164 kts 272°
2026-05-07 14:49 33.63446 -84.46975 2573 ft 165 kts 274°
2026-05-07 14:49 33.63445 -84.48255 2949 ft 171 kts 270°
2026-05-07 14:49 33.63447 -84.49759 3150 ft 192 kts 270°
2026-05-07 14:50 33.63449 -84.51443 3298 ft 214 kts 270°
2026-05-07 14:50 33.63451 -84.53525 3546 ft 241 kts 269°
2026-05-07 14:50 33.63451 -84.55437 4228 ft 246 kts 269°
2026-05-07 14:50 33.63451 -84.57506 5183 ft 244 kts 268°
2026-05-07 14:51 33.63453 -84.59558 6041 ft 245 kts 269°
2026-05-07 14:51 33.63450 -84.61696 6870 ft 245 kts 269°
2026-05-07 14:51 33.63336 -84.63769 7517 ft 251 kts 259°
2026-05-07 14:51 33.62638 -84.65693 8310 ft 254 kts 239°
2026-05-07 14:52 33.61329 -84.67240 9136 ft 265 kts 219°
2026-05-07 14:52 33.59765 -84.68333 9898 ft 268 kts 217°
2026-05-07 14:52 33.57941 -84.69251 10653 ft 281 kts 201°
2026-05-07 14:52 33.56035 -84.69442 11301 ft 298 kts 184°
2026-05-07 14:53 33.53949 -84.69079 12001 ft 304 kts 181°
2026-05-07 14:53 33.51825 -84.68673 12718 ft 307 kts 181°
2026-05-07 14:53 33.49730 -84.68271 13432 ft 310 kts 182°
2026-05-07 14:53 33.47589 -84.67865 14069 ft 313 kts 182°
2026-05-07 14:54 33.45408 -84.67454 14678 ft 315 kts 183°
2026-05-07 14:54 33.43235 -84.66845 15253 ft 331 kts 171°
2026-05-07 14:54 33.41111 -84.65563 15676 ft 357 kts 156°
2026-05-07 14:54 33.39144 -84.63530 15797 ft 387 kts 143°
2026-05-07 14:55 33.37861 -84.62006 15885 ft 399 kts 143°
2026-05-07 14:55 33.35169 -84.58799 16255 ft 415 kts 143°
2026-05-07 14:55 33.33110 -84.56339 16751 ft 420 kts 143°
2026-05-07 14:55 33.31023 -84.53851 17242 ft 425 kts 143°
2026-05-07 14:56 33.28924 -84.51359 17768 ft 429 kts 144°
2026-05-07 14:56 33.26792 -84.48835 18274 ft 433 kts 144°
2026-05-07 14:56 33.24626 -84.46280 18721 ft 436 kts 144°
2026-05-07 14:56 33.22444 -84.43713 19187 ft 439 kts 144°
2026-05-07 14:57 33.20263 -84.41153 19647 ft 441 kts 144°
2026-05-07 14:57 33.18070 -84.38581 20104 ft 443 kts 144°
2026-05-07 14:57 33.15867 -84.36001 20564 ft 445 kts 144°
2026-05-07 14:57 33.13640 -84.33392 21027 ft 447 kts 144°
2026-05-07 14:58 33.12176 -84.31677 21314 ft 449 kts 144°
2026-05-07 14:58 33.09182 -84.28171 21870 ft 452 kts 144°
2026-05-07 14:58 33.07667 -84.26399 22145 ft 454 kts 144°
2026-05-07 14:58 33.05403 -84.23754 22560 ft 456 kts 144°
2026-05-07 14:59 33.03129 -84.21097 23048 ft 458 kts 145°
2026-05-07 14:59 33.00716 -84.18670 23409 ft 451 kts 154°
2026-05-07 14:59 32.98067 -84.16742 23761 ft 441 kts 163°
2026-05-07 14:59 32.95274 -84.15351 24123 ft 432 kts 172°
2026-05-07 15:00 32.92420 -84.14199 24488 ft 434 kts 172°
2026-05-07 15:00 32.89561 -84.13032 24867 ft 436 kts 171°
2026-05-07 15:00 32.86710 -84.11858 25240 ft 438 kts 171°
2026-05-07 15:00 32.83768 -84.10639 25612 ft 439 kts 171°
2026-05-07 15:01 32.80878 -84.09439 25958 ft 441 kts 171°
2026-05-07 15:01 32.77974 -84.08235 26309 ft 443 kts 171°
2026-05-07 15:01 32.75051 -84.07031 26644 ft 445 kts 171°
2026-05-07 15:01 32.72128 -84.05830 26915 ft 447 kts 170°
2026-05-07 15:02 32.69141 -84.04608 27230 ft 449 kts 170°
2026-05-07 15:02 32.66222 -84.03414 27538 ft 451 kts 170°
2026-05-07 15:02 32.63250 -84.02203 27875 ft 453 kts 170°
2026-05-07 15:02 32.60262 -84.00991 28203 ft 454 kts 170°
2026-05-07 15:03 32.57260 -83.99773 28529 ft 456 kts 169°
2026-05-07 15:03 32.54249 -83.98546 28842 ft 458 kts 169°
2026-05-07 15:03 32.51231 -83.97314 29151 ft 460 kts 169°
2026-05-07 15:03 32.48203 -83.96077 29431 ft 461 kts 169°
2026-05-07 15:04 32.45162 -83.94833 29667 ft 464 kts 168°
2026-05-07 15:04 32.42105 -83.93581 29913 ft 466 kts 168°
2026-05-07 15:04 32.39036 -83.92330 30149 ft 467 kts 168°
2026-05-07 15:04 32.35958 -83.91082 30379 ft 468 kts 169°
2026-05-07 15:05 32.32863 -83.89890 30625 ft 468 kts 170°
2026-05-07 15:05 32.29749 -83.88761 30885 ft 468 kts 171°
2026-05-07 15:05 32.26584 -83.87656 31203 ft 467 kts 171°
2026-05-07 15:05 32.23478 -83.86582 31591 ft 465 kts 171°
2026-05-07 15:06 32.20378 -83.85505 31975 ft 463 kts 171°
2026-05-07 15:06 32.17286 -83.84419 32194 ft 465 kts 171°
2026-05-07 15:06 32.14173 -83.83314 32429 ft 467 kts 170°
2026-05-07 15:06 32.11063 -83.82198 32739 ft 467 kts 170°
2026-05-07 15:07 32.07955 -83.81078 33099 ft 466 kts 170°